Date,TemperatureHighF,TemperatureAvgF,TemperatureLowF,DewpointHighF,DewpointAvgF,DewpointLowF,HumidityHigh,HumidityAvg,HumidityLow,PressureMaxIn,PressureMinIn,WindSpeedMaxMPH,WindSpeedAvgMPH,GustSpeedMaxMPH,PrecipitationSumIn
2013-5-1,80,74,70,73,71,69,97,89,77,29.87,29.72,13,6,16,0.00
2013-5-2,80,70,56,70,61,44,96,75,55,30.23,29.82,16,6,27,0.03
2013-5-3,71,61,53,44,33,26,67,38,19,30.29,30.07,22,8,26,0.00
2013-5-4,76,67,57,52,44,35,66,44,30,30.09,29.89,11,4,15,0.00
2013-5-5,76,69,60,59,56,52,87,64,48,30.07,29.93,15,5,19,0.00
2013-5-6,77,70,62,61,58,56,86,66,54,30.10,29.95,13,4,19,0.00
2013-5-7,78,72,66,66,62,60,83,71,58,30.05,29.94,12,5,15,0.00
2013-5-8,79,74,70,70,68,66,91,81,68,30.00,29.90,13,6,19,0.00
2013-5-9,78,74,72,73,71,70,93,90,83,29.93,29.79,11,5,16,0.00
2013-5-10,75,74,72,73,72,70,95,93,89,29.92,29.79,13,6,18,0.00
2013-5-11,79,74,70,71,68,66,94,82,64,30.04,29.90,14,7,22,0.15
2013-5-12,75,72,66,71,65,60,93,79,63,30.13,30.00,14,8,24,0.51
2013-5-13,78,73,66,68,65,62,89,76,59,30.24,30.12,16,7,19,0.00
2013-5-14,81,75,71,72,69,66,88,81,72,30.20,30.04,12,6,16,0.00
2013-5-15,79,75,73,74,72,70,94,88,82,30.09,29.86,11,6,19,0.50
2013-5-16,82,77,73,74,72,70,92,86,77,29.89,29.73,18,6,22,0.00
2013-5-17,83,78,74,75,73,71,93,87,74,29.89,29.77,13,6,19,0.00
2013-5-18,84,78,75,75,74,72,94,87,72,29.90,29.81,12,6,16,0.00
2013-5-19,84,78,75,75,74,73,93,86,75,29.86,29.73,8,5,16,0.00
2013-5-20,84,78,75,76,74,73,93,88,77,29.82,29.70,12,6,16,0.00
2013-5-21,84,77,75,76,71,-100,95,86,75,29.78,29.68,11,-15,15,0.00
2013-5-22,83,76,75,77,71,-100,96,90,81,29.86,29.75,13,-21,18,0.00
2013-5-23,84,80,76,78,76,74,96,89,79,29.97,29.83,12,6,16,0.00
2013-5-24,85,80,77,77,76,75,94,87,75,30.07,29.93,16,8,21,0.00
2013-5-25,83,79,77,77,75,74,92,88,78,30.07,29.98,18,8,20,0.00
2013-5-26,85,80,76,75,73,72,89,81,69,30.06,29.95,13,7,19,0.00
2013-5-27,86,81,77,76,74,72,91,82,69,29.99,29.85,14,7,20,0.00
2013-5-28,87,82,78,77,75,74,89,81,71,29.90,29.77,15,9,24,0.00
2013-5-29,85,80,78,77,76,74,90,85,77,29.83,29.70,19,8,28,0.00
2013-5-30,86,82,78,78,76,75,91,85,74,29.81,29.73,16,8,21,0.00
2013-5-31,88,82,79,78,77,76,92,84,72,29.86,29.76,14,7,21,0.00